When you browse on this site, cookies collect data to enhance your experience and personalize the content and advertising you see.
Visit our Privacy Policy to learn more. By continuing to use the site, you agree to this use of cookies and data.
  • In Österreich
  • Länderverzeichnis
  • Für 7 Tage
  • Wassertemperatur
  • Satellitenkarten
  • Wetterkarte
  • News
  • Widgets
  • user-avatar
    Anmelden

    Stündliche Wetter Berezhcy

    Heute, 24 Mai, Freitag

    Zeit Temperatur Niederschläge Wind Luftdruck Luftfeuchtigkeit
    00:00 +16°C° 0 mm 1 m/S 745 mmHg 89%
    01:00 +15°C° 0 mm 1 m/S 745 mmHg 90%
    02:00 +15°C° 0 mm 1 m/S 745 mmHg 90%
    03:00 +15°C° 0 mm 1 m/S 746 mmHg 91%
    04:00 +15°C° 0 mm 1 m/S 746 mmHg 92%
    05:00 +15°C° 0 mm 1 m/S 746 mmHg 92%
    06:00 +16°C° 0 mm 1 m/S 746 mmHg 88%
    07:00 +19°C° 0 mm 1 m/S 746 mmHg 83%
    08:00 +20°C° 0 mm 2 m/S 746 mmHg 79%
    09:00 +21°C° 0.3 mm 2 m/S 746 mmHg 72%
    10:00 +23°C° 0.3 mm 2 m/S 746 mmHg 66%
    11:00 +25°C° 0.3 mm 2 m/S 746 mmHg 60%
    12:00 +25°C° 0.1 mm 2 m/S 746 mmHg 59%
    13:00 +25°C° 0.1 mm 2 m/S 746 mmHg 58%
    14:00 +26°C° 0.1 mm 3 m/S 746 mmHg 58%
    15:00 +25°C° 0.5 mm 2 m/S 745 mmHg 61%
    16:00 +25°C° 0.5 mm 2 m/S 745 mmHg 65%
    17:00 +24°C° 0.5 mm 2 m/S 745 mmHg 68%
    18:00 +23°C° 0.5 mm 2 m/S 745 mmHg 76%
    19:00 +20°C° 0.5 mm 2 m/S 745 mmHg 84%
    20:00 +18°C° 0.5 mm 2 m/S 745 mmHg 92%
    21:00 +17°C° 0.2 mm 2 m/S 745 mmHg 94%
    22:00 +17°C° 0.2 mm 2 m/S 745 mmHg 95%
    23:00 +16°C° 0.2 mm 2 m/S 745 mmHg 97%

    Morgen, 25 Mai, Samstag

    Zeit Temperatur Niederschläge Wind Luftdruck Luftfeuchtigkeit
    00:00 +15°C° 0 mm 2 m/S 745 mmHg 97%
    01:00 +15°C° 0 mm 2 m/S 745 mmHg 97%
    02:00 +14°C° 0 mm 2 m/S 745 mmHg 98%
    03:00 +14°C° 0.1 mm 2 m/S 745 mmHg 98%
    04:00 +14°C° 0.1 mm 2 m/S 744 mmHg 98%
    05:00 +14°C° 0.1 mm 2 m/S 744 mmHg 97%
    06:00 +15°C° 0 mm 2 m/S 745 mmHg 94%
    07:00 +16°C° 0 mm 2 m/S 745 mmHg 91%
    08:00 +17°C° 0 mm 2 m/S 745 mmHg 87%
    09:00 +19°C° 0 mm 3 m/S 745 mmHg 79%
    10:00 +20°C° 0 mm 3 m/S 745 mmHg 70%
    11:00 +22°C° 0 mm 4 m/S 745 mmHg 62%
    12:00 +23°C° 0 mm 4 m/S 745 mmHg 58%
    13:00 +23°C° 0 mm 4 m/S 744 mmHg 55%
    14:00 +25°C° 0 mm 5 m/S 744 mmHg 52%
    15:00 +25°C° 0 mm 4 m/S 744 mmHg 52%
    16:00 +23°C° 0 mm 4 m/S 744 mmHg 51%
    17:00 +23°C° 0 mm 4 m/S 744 mmHg 51%
    18:00 +21°C° 0 mm 3 m/S 744 mmHg 59%
    19:00 +19°C° 0 mm 2 m/S 744 mmHg 66%
    20:00 +17°C° 0 mm 2 m/S 745 mmHg 74%
    21:00 +16°C° 0 mm 2 m/S 745 mmHg 77%
    22:00 +16°C° 0 mm 2 m/S 745 mmHg 81%
    23:00 +15°C° 0 mm 2 m/S 745 mmHg 85%

    übermorgen, 26 Mai, Sonntag

    Zeit Temperatur Niederschläge Wind Luftdruck Luftfeuchtigkeit
    00:00 +14°C° 0 mm 2 m/S 745 mmHg 87%
    01:00 +14°C° 0 mm 2 m/S 746 mmHg 90%
    02:00 +13°C° 0 mm 2 m/S 746 mmHg 92%
    03:00 +13°C° 0 mm 2 m/S 746 mmHg 93%
    04:00 +13°C° 0 mm 2 m/S 746 mmHg 94%
    05:00 +12°C° 0 mm 1 m/S 746 mmHg 95%
    06:00 +14°C° 0 mm 2 m/S 746 mmHg 86%
    07:00 +16°C° 0 mm 2 m/S 746 mmHg 76%
    08:00 +17°C° 0 mm 2 m/S 747 mmHg 67%
    09:00 +18°C° 0 mm 2 m/S 747 mmHg 64%
    10:00 +19°C° 0 mm 3 m/S 747 mmHg 62%
    11:00 +19°C° 0 mm 3 m/S 747 mmHg 60%
    12:00 +20°C° 0 mm 4 m/S 746 mmHg 56%
    13:00 +21°C° 0 mm 4 m/S 746 mmHg 52%
    14:00 +22°C° 0 mm 4 m/S 746 mmHg 48%
    15:00 +22°C° 0 mm 4 m/S 746 mmHg 49%
    16:00 +22°C° 0 mm 4 m/S 746 mmHg 50%
    17:00 +22°C° 0 mm 4 m/S 746 mmHg 51%
    18:00 +20°C° 0.1 mm 4 m/S 746 mmHg 62%
    19:00 +18°C° 0.1 mm 3 m/S 746 mmHg 72%
    20:00 +17°C° 0.1 mm 3 m/S 746 mmHg 82%
    21:00 +16°C° 0.1 mm 3 m/S 746 mmHg 86%
    22:00 +16°C° 0.1 mm 3 m/S 746 mmHg 90%
    23:00 +14°C° 0.1 mm 3 m/S 747 mmHg 93%

    27 Mai, Montag

    Zeit Temperatur Niederschläge Wind Luftdruck Luftfeuchtigkeit
    00:00 +14°C° 0 mm 2 m/S 747 mmHg 94%
    01:00 +14°C° 0 mm 2 m/S 747 mmHg 96%
    02:00 +13°C° 0 mm 2 m/S 747 mmHg 97%
    03:00 +13°C° 0 mm 2 m/S 747 mmHg 96%
    04:00 +12°C° 0 mm 1 m/S 748 mmHg 95%
    05:00 +12°C° 0 mm 1 m/S 748 mmHg 95%
    06:00 +14°C° 0 mm 1 m/S 748 mmHg 86%
    07:00 +16°C° 0 mm 2 m/S 748 mmHg 77%
    08:00 +18°C° 0 mm 2 m/S 748 mmHg 68%
    09:00 +19°C° 0 mm 2 m/S 749 mmHg 61%
    10:00 +21°C° 0 mm 3 m/S 749 mmHg 55%
    11:00 +22°C° 0 mm 3 m/S 749 mmHg 49%
    12:00 +24°C° 0 mm 3 m/S 748 mmHg 48%
    13:00 +25°C° 0 mm 3 m/S 748 mmHg 48%
    14:00 +26°C° 0 mm 3 m/S 748 mmHg 47%
    15:00 +26°C° 0.1 mm 3 m/S 747 mmHg 52%
    16:00 +25°C° 0.1 mm 3 m/S 747 mmHg 57%
    17:00 +25°C° 0.1 mm 4 m/S 747 mmHg 62%
    18:00 +22°C° 0.1 mm 3 m/S 747 mmHg 70%
    19:00 +21°C° 0.1 mm 3 m/S 747 mmHg 77%
    20:00 +20°C° 0.1 mm 2 m/S 747 mmHg 85%
    21:00 +19°C° 0.1 mm 2 m/S 747 mmHg 87%
    22:00 +19°C° 0.1 mm 2 m/S 747 mmHg 88%
    23:00 +18°C° 0.1 mm 2 m/S 747 mmHg 90%

    28 Mai, Dienstag

    Zeit Temperatur Niederschläge Wind Luftdruck Luftfeuchtigkeit
    00:00 +18°C° 0.1 mm 2 m/S 747 mmHg 91%
    01:00 +19°C° 0.1 mm 1 m/S 747 mmHg 91%
    02:00 +19°C° 0.1 mm 1 m/S 747 mmHg 92%
    03:00 +19°C° 0 mm 1 m/S 747 mmHg 93%
    04:00 +19°C° 0 mm 1 m/S 746 mmHg 93%
    05:00 +18°C° 0 mm 2 m/S 746 mmHg 93%
    06:00 +19°C° 0 mm 2 m/S 746 mmHg 90%
    07:00 +20°C° 0 mm 2 m/S 746 mmHg 87%
    08:00 +21°C° 0 mm 3 m/S 746 mmHg 84%
    09:00 +21°C° 0.2 mm 3 m/S 746 mmHg 83%
    10:00 +22°C° 0.2 mm 3 m/S 746 mmHg 82%
    11:00 +22°C° 0.2 mm 4 m/S 746 mmHg 82%
    12:00 +25°C° 0.1 mm 4 m/S 746 mmHg 74%
    13:00 +26°C° 0.1 mm 4 m/S 745 mmHg 67%
    14:00 +28°C° 0.1 mm 4 m/S 745 mmHg 60%
    15:00 +28°C° 0.9 mm 4 m/S 745 mmHg 61%
    16:00 +27°C° 0.9 mm 4 m/S 745 mmHg 62%
    17:00 +27°C° 0.9 mm 4 m/S 745 mmHg 63%
    18:00 +26°C° 0.1 mm 4 m/S 745 mmHg 67%
    19:00 +24°C° 0.1 mm 3 m/S 745 mmHg 71%
    20:00 +22°C° 0.1 mm 3 m/S 745 mmHg 75%
    21:00 +21°C° 0 mm 3 m/S 745 mmHg 76%
    22:00 +21°C° 0 mm 3 m/S 745 mmHg 78%
    23:00 +20°C° 0 mm 4 m/S 745 mmHg 80%

    29 Mai, Mittwoch

    Zeit Temperatur Niederschläge Wind Luftdruck Luftfeuchtigkeit
    00:00 +19°C° 0 mm 4 m/S 744 mmHg 80%
    01:00 +19°C° 0 mm 4 m/S 744 mmHg 80%
    02:00 +18°C° 0 mm 4 m/S 744 mmHg 79%
    03:00 +18°C° 0.4 mm 4 m/S 744 mmHg 82%
    04:00 +17°C° 0.4 mm 3 m/S 744 mmHg 86%
    05:00 +17°C° 0.4 mm 3 m/S 744 mmHg 89%
    06:00 +18°C° 0.1 mm 3 m/S 744 mmHg 86%
    07:00 +19°C° 0.1 mm 4 m/S 744 mmHg 84%
    08:00 +20°C° 0.1 mm 4 m/S 745 mmHg 82%
    09:00 +22°C° 0 mm 4 m/S 745 mmHg 74%
    10:00 +25°C° 0 mm 3 m/S 745 mmHg 65%
    11:00 +27°C° 0 mm 3 m/S 745 mmHg 57%
    12:00 +28°C° 0 mm 4 m/S 745 mmHg 53%
    13:00 +29°C° 0 mm 4 m/S 745 mmHg 49%
    14:00 +30°C° 0 mm 5 m/S 745 mmHg 45%
    15:00 +29°C° 0 mm 4 m/S 745 mmHg 47%
    16:00 +29°C° 0 mm 4 m/S 745 mmHg 50%
    17:00 +28°C° 0 mm 4 m/S 745 mmHg 52%
    18:00 +26°C° 0 mm 3 m/S 745 mmHg 60%
    19:00 +24°C° 0 mm 2 m/S 746 mmHg 69%
    20:00 +22°C° 0 mm 1 m/S 746 mmHg 78%
    21:00 +21°C° 0.1 mm 1 m/S 746 mmHg 81%
    22:00 +21°C° 0.1 mm 1 m/S 746 mmHg 85%
    23:00 +20°C° 0.1 mm 1 m/S 746 mmHg 88%
    Mehr zeigen